Year,Month,Day,Hour,Minute,Value (Times are PST for temperature in C)
2015,06,19,00,00,14.40
2015,06,19,00,01,14.40
2015,06,19,00,02,14.40
2015,06,19,00,03,14.40
2015,06,19,00,04,14.40
2015,06,19,00,05,14.40
2015,06,19,00,06,14.40
2015,06,19,00,07,14.40
2015,06,19,00,08,14.30
2015,06,19,00,09,14.30
2015,06,19,00,10,14.30
2015,06,19,00,11,14.40
2015,06,19,00,12,14.40
2015,06,19,00,13,14.40
2015,06,19,00,14,14.40
2015,06,19,00,15,14.40
2015,06,19,00,16,14.40
2015,06,19,00,17,14.40
2015,06,19,00,18,14.40
2015,06,19,00,19,14.40
2015,06,19,00,20,14.40
2015,06,19,00,21,14.40
2015,06,19,00,22,14.40
2015,06,19,00,23,14.40
2015,06,19,00,24,14.30
2015,06,19,00,25,14.30
2015,06,19,00,26,14.30
2015,06,19,00,27,14.30
2015,06,19,00,28,14.30
2015,06,19,00,29,14.20
2015,06,19,00,30,14.20
2015,06,19,00,31,14.20
2015,06,19,00,32,14.10
2015,06,19,00,33,14.10
2015,06,19,00,34,14.10
2015,06,19,00,35,14.20
2015,06,19,00,36,14.20
2015,06,19,00,37,14.30
2015,06,19,00,38,14.30
2015,06,19,00,39,14.30
2015,06,19,00,40,14.30
2015,06,19,00,41,14.30
2015,06,19,00,42,14.30
2015,06,19,00,43,14.40
2015,06,19,00,44,14.40
2015,06,19,00,45,14.40
2015,06,19,00,46,14.40
2015,06,19,00,47,14.40
2015,06,19,00,48,14.40
2015,06,19,00,49,14.40
2015,06,19,00,50,14.40
2015,06,19,00,51,14.40
2015,06,19,00,52,14.40
2015,06,19,00,53,14.40
2015,06,19,00,54,14.40
2015,06,19,00,55,14.40
2015,06,19,00,56,14.50
2015,06,19,00,57,14.50
2015,06,19,00,58,14.50
2015,06,19,00,59,14.50
2015,06,19,01,00,14.60
2015,06,19,01,01,14.60
2015,06,19,01,02,14.60
2015,06,19,01,03,14.60
2015,06,19,01,04,14.60
2015,06,19,01,05,14.60
2015,06,19,01,06,14.60
2015,06,19,01,07,14.60
2015,06,19,01,08,14.60
2015,06,19,01,09,14.60
2015,06,19,01,10,14.60
2015,06,19,01,11,14.60
2015,06,19,01,12,14.60
2015,06,19,01,13,14.60
2015,06,19,01,14,14.60
2015,06,19,01,15,14.60
2015,06,19,01,16,14.60
2015,06,19,01,17,14.60
2015,06,19,01,18,14.70
2015,06,19,01,19,14.70
2015,06,19,01,20,14.70
2015,06,19,01,21,14.70
2015,06,19,01,22,14.70
2015,06,19,01,23,14.70
2015,06,19,01,24,14.70
2015,06,19,01,25,14.70
2015,06,19,01,26,14.70
2015,06,19,01,27,14.70
2015,06,19,01,28,14.70
2015,06,19,01,29,14.70
2015,06,19,01,30,14.70
2015,06,19,01,31,14.70
2015,06,19,01,32,14.70
2015,06,19,01,33,14.70
2015,06,19,01,34,14.70
2015,06,19,01,35,14.70
2015,06,19,01,36,14.70
2015,06,19,01,37,14.70
2015,06,19,01,38,14.70
2015,06,19,01,39,14.70
2015,06,19,01,40,14.70
2015,06,19,01,41,14.70
2015,06,19,01,42,14.70
2015,06,19,01,43,14.70
2015,06,19,01,44,14.70
2015,06,19,01,45,14.70
2015,06,19,01,46,14.70
2015,06,19,01,47,14.70
2015,06,19,01,48,14.60
2015,06,19,01,49,14.60
2015,06,19,01,50,14.60
2015,06,19,01,51,14.60
2015,06,19,01,52,14.60
2015,06,19,01,53,14.60
2015,06,19,01,54,14.60
2015,06,19,01,55,14.60
2015,06,19,01,56,14.60
2015,06,19,01,57,14.60
2015,06,19,01,58,14.60
2015,06,19,01,59,14.60
2015,06,19,02,00,14.60
2015,06,19,02,01,14.60
2015,06,19,02,02,14.60
2015,06,19,02,03,14.50
2015,06,19,02,04,14.50
2015,06,19,02,05,14.40
2015,06,19,02,06,14.40
2015,06,19,02,07,14.40
2015,06,19,02,08,14.30
2015,06,19,02,09,14.30
2015,06,19,02,10,14.30
2015,06,19,02,11,14.30
2015,06,19,02,12,14.30
2015,06,19,02,13,14.30
2015,06,19,02,14,14.20
2015,06,19,02,15,14.20
2015,06,19,02,16,14.20
2015,06,19,02,17,14.20
2015,06,19,02,18,14.20
2015,06,19,02,19,14.20
2015,06,19,02,20,14.20
2015,06,19,02,21,14.10
2015,06,19,02,22,14.10
2015,06,19,02,23,14.00
2015,06,19,02,24,14.00
2015,06,19,02,25,13.90
2015,06,19,02,26,13.90
2015,06,19,02,27,13.80
2015,06,19,02,28,13.80
2015,06,19,02,29,13.70
2015,06,19,02,30,13.70
2015,06,19,02,31,13.60
2015,06,19,02,32,13.50
2015,06,19,02,33,13.50
2015,06,19,02,34,13.40
2015,06,19,02,35,13.30
2015,06,19,02,36,13.30
2015,06,19,02,37,13.30
2015,06,19,02,38,13.30
2015,06,19,02,39,13.20
2015,06,19,02,40,13.30
2015,06,19,02,41,13.40
2015,06,19,02,42,13.50
2015,06,19,02,43,13.60
2015,06,19,02,44,13.60
2015,06,19,02,45,13.70
2015,06,19,02,46,13.70
2015,06,19,02,47,13.80
2015,06,19,02,48,13.80
2015,06,19,02,49,13.90
2015,06,19,02,50,14.00
2015,06,19,02,51,14.10
2015,06,19,02,52,14.20
2015,06,19,02,53,14.30
2015,06,19,02,54,14.30
2015,06,19,02,55,14.30
2015,06,19,02,56,14.30
2015,06,19,02,57,14.30
2015,06,19,02,58,14.30
2015,06,19,02,59,14.30
2015,06,19,03,00,14.30
2015,06,19,03,01,14.30
2015,06,19,03,02,14.30
2015,06,19,06,11,11.90
2015,06,19,06,12,12.00
2015,06,19,06,13,12.00
2015,06,19,06,14,12.10
2015,06,19,06,15,12.10
2015,06,19,06,16,12.20
2015,06,19,06,17,12.30
2015,06,19,06,18,12.40
2015,06,19,06,19,12.40
2015,06,19,06,20,12.50
2015,06,19,06,21,12.50
2015,06,19,06,22,12.60
2015,06,19,06,23,12.70
2015,06,19,06,24,12.70
2015,06,19,06,25,12.80
2015,06,19,06,26,12.80
2015,06,19,06,27,12.90
2015,06,19,06,28,12.90
2015,06,19,06,29,13.00
2015,06,19,06,30,13.00
2015,06,19,06,31,13.10
2015,06,19,06,32,13.10
2015,06,19,06,33,13.20
2015,06,19,06,34,13.20
2015,06,19,06,35,13.30
2015,06,19,06,36,13.40
2015,06,19,06,37,13.40
2015,06,19,06,38,13.50
2015,06,19,06,39,13.50
2015,06,19,06,40,13.60
2015,06,19,06,41,13.70
2015,06,19,06,42,13.80
2015,06,19,06,43,13.80
2015,06,19,06,44,13.90
2015,06,19,06,45,13.90
2015,06,19,06,46,14.00
2015,06,19,06,47,14.00
2015,06,19,06,48,14.00
2015,06,19,06,49,14.00
2015,06,19,06,50,14.00
2015,06,19,06,51,14.10
2015,06,19,06,52,14.10
2015,06,19,06,53,14.10
2015,06,19,06,54,14.10
2015,06,19,06,55,14.20
2015,06,19,06,56,14.20
2015,06,19,06,57,14.20
2015,06,19,06,58,14.30
2015,06,19,06,59,14.30
2015,06,19,07,00,14.30
2015,06,19,07,01,14.30
2015,06,19,07,02,14.40
2015,06,19,07,03,14.40
2015,06,19,07,04,14.50
2015,06,19,07,05,14.50
2015,06,19,07,06,14.60
2015,06,19,07,07,14.80
2015,06,19,07,08,14.80
2015,06,19,07,09,14.90
2015,06,19,07,10,15.00
2015,06,19,07,11,15.10
2015,06,19,07,12,15.10
2015,06,19,07,13,15.20
2015,06,19,07,14,15.20
2015,06,19,07,15,15.20
2015,06,19,07,16,15.30
2015,06,19,07,17,15.30
2015,06,19,07,18,15.40
2015,06,19,07,19,15.40
2015,06,19,07,20,15.50
2015,06,19,07,21,15.50
2015,06,19,07,22,15.60
2015,06,19,07,23,15.70
2015,06,19,07,24,15.80
2015,06,19,07,25,15.80
2015,06,19,07,26,15.90
2015,06,19,07,27,16.00
2015,06,19,07,28,16.00
2015,06,19,07,29,16.00
2015,06,19,07,30,16.10
2015,06,19,07,31,16.10
2015,06,19,07,32,16.10
2015,06,19,07,33,16.10
2015,06,19,07,34,16.10
2015,06,19,07,35,16.10
2015,06,19,07,36,16.10
2015,06,19,07,37,16.10
2015,06,19,07,38,16.10
2015,06,19,07,39,16.10
2015,06,19,07,40,16.10
2015,06,19,07,41,16.10
2015,06,19,07,42,16.10
2015,06,19,07,43,16.10
2015,06,19,07,44,16.10
2015,06,19,07,45,16.10
2015,06,19,07,46,16.20
2015,06,19,07,47,16.20
2015,06,19,07,48,16.20
2015,06,19,07,49,16.20
2015,06,19,07,50,16.20
2015,06,19,07,51,16.20
2015,06,19,07,52,16.20
2015,06,19,07,53,16.20
2015,06,19,07,54,16.20
2015,06,19,07,55,16.20
2015,06,19,07,56,16.30
2015,06,19,07,57,16.20
2015,06,19,07,58,16.20
2015,06,19,07,59,16.20
2015,06,19,08,00,16.20
2015,06,19,08,01,16.20
2015,06,19,08,02,16.20
2015,06,19,08,03,16.20
2015,06,19,08,04,16.20
2015,06,19,08,05,16.30
2015,06,19,08,06,16.30
2015,06,19,08,07,16.40
2015,06,19,08,08,16.40
2015,06,19,08,09,16.50
2015,06,19,08,10,16.50
2015,06,19,08,11,16.50
2015,06,19,08,12,16.50
2015,06,19,08,13,16.50
2015,06,19,08,14,16.60
2015,06,19,08,15,16.60
2015,06,19,08,16,16.60
2015,06,19,08,17,16.60
2015,06,19,08,18,16.60
2015,06,19,08,19,16.60
2015,06,19,08,20,16.60
2015,06,19,08,21,16.60
2015,06,19,08,22,16.60
2015,06,19,08,23,16.70
2015,06,19,08,24,16.70
2015,06,19,08,25,16.70
2015,06,19,08,26,16.70
2015,06,19,08,27,16.70
2015,06,19,08,28,16.70
2015,06,19,08,29,16.60
2015,06,19,08,30,16.60
2015,06,19,08,31,16.50
2015,06,19,08,32,16.40
2015,06,19,08,33,16.40
2015,06,19,08,34,16.50
2015,06,19,08,35,16.60
2015,06,19,08,36,16.50
2015,06,19,08,37,16.60
2015,06,19,08,38,16.50
2015,06,19,08,39,16.50
2015,06,19,08,40,16.50
2015,06,19,08,41,16.50
2015,06,19,08,42,16.50
2015,06,19,08,43,16.50
2015,06,19,08,44,16.50
2015,06,19,08,45,16.50
2015,06,19,08,46,16.60
2015,06,19,08,47,16.60
2015,06,19,08,48,16.70
2015,06,19,08,49,16.70
2015,06,19,08,50,16.70
2015,06,19,08,51,16.70
2015,06,19,08,52,16.80
2015,06,19,08,53,16.80
2015,06,19,08,54,16.80
2015,06,19,08,55,16.90
2015,06,19,08,56,16.90
2015,06,19,08,57,16.90
2015,06,19,08,58,16.90
2015,06,19,08,59,16.80
2015,06,19,09,00,16.80
2015,06,19,09,01,16.80
2015,06,19,09,02,16.80
2015,06,19,09,03,16.80
2015,06,19,09,04,16.80
2015,06,19,09,05,16.80
2015,06,19,09,06,16.80
2015,06,19,09,07,16.80
2015,06,19,09,08,16.80
2015,06,19,09,09,16.90
2015,06,19,09,10,16.90
2015,06,19,09,11,17.00
2015,06,19,09,12,17.00
2015,06,19,09,13,17.00
2015,06,19,09,14,17.10
2015,06,19,09,15,17.10
2015,06,19,09,16,17.20
2015,06,19,09,17,17.30
2015,06,19,09,18,17.40
2015,06,19,09,19,17.50
2015,06,19,09,20,17.50
2015,06,19,09,21,17.50
2015,06,19,09,22,17.50
2015,06,19,09,23,17.40
2015,06,19,09,24,17.40
2015,06,19,09,25,17.50
2015,06,19,09,26,17.50
2015,06,19,09,27,17.60
2015,06,19,09,28,17.70
2015,06,19,09,29,17.70
2015,06,19,09,30,17.80
2015,06,19,09,31,17.80
2015,06,19,09,32,17.60
2015,06,19,09,33,17.60
2015,06,19,09,34,17.60
2015,06,19,09,35,17.60
2015,06,19,09,36,17.60
2015,06,19,09,37,17.60
2015,06,19,09,38,17.60
2015,06,19,09,39,17.60
2015,06,19,09,40,17.60
2015,06,19,09,41,17.60
2015,06,19,09,42,17.70
2015,06,19,09,43,17.70
2015,06,19,09,44,17.70
2015,06,19,09,45,17.70
2015,06,19,09,46,17.80
2015,06,19,09,47,17.80
2015,06,19,09,48,17.80
2015,06,19,09,49,17.80
2015,06,19,09,50,17.80
2015,06,19,09,51,17.80
2015,06,19,09,52,17.80
2015,06,19,09,53,17.80
2015,06,19,09,54,17.90
2015,06,19,09,55,18.00
2015,06,19,09,56,18.10
2015,06,19,09,57,18.20
2015,06,19,09,58,18.10
2015,06,19,09,59,18.10
2015,06,19,10,00,18.10
2015,06,19,10,01,18.10
2015,06,19,10,02,18.10
2015,06,19,10,03,18.20
2015,06,19,10,04,18.20
2015,06,19,10,05,18.20
2015,06,19,10,06,18.20
2015,06,19,10,07,18.20
2015,06,19,10,08,18.30
2015,06,19,10,09,18.30
2015,06,19,10,10,18.30
2015,06,19,10,11,18.30
2015,06,19,10,12,18.50
2015,06,19,10,13,18.60
2015,06,19,10,14,18.80
2015,06,19,10,15,19.00
2015,06,19,10,16,19.10
2015,06,19,10,17,19.00
2015,06,19,10,18,18.90
2015,06,19,10,19,18.80
2015,06,19,10,20,18.80
2015,06,19,10,21,18.70
2015,06,19,10,22,18.70
2015,06,19,10,23,18.50
2015,06,19,10,24,18.40
2015,06,19,10,25,18.30
2015,06,19,10,26,18.20
2015,06,19,10,27,18.20
2015,06,19,10,28,18.20
2015,06,19,10,29,18.20
2015,06,19,10,30,18.30
2015,06,19,10,31,18.30
2015,06,19,10,32,18.40
2015,06,19,10,33,18.60
2015,06,19,10,34,18.80
2015,06,19,10,35,18.90
2015,06,19,10,36,19.00
2015,06,19,10,37,19.00
2015,06,19,10,38,19.00
2015,06,19,10,39,18.90
2015,06,19,10,40,18.80
2015,06,19,10,41,18.70
2015,06,19,10,42,18.60
2015,06,19,10,43,18.60
2015,06,19,10,44,18.50
2015,06,19,10,45,18.40
2015,06,19,10,46,18.30
2015,06,19,10,47,18.30
2015,06,19,10,48,18.40
2015,06,19,10,49,18.50
2015,06,19,10,50,18.60
2015,06,19,10,51,18.60
2015,06,19,10,52,18.60
2015,06,19,10,53,18.60
2015,06,19,10,54,18.70
2015,06,19,10,55,18.80
2015,06,19,10,56,18.90
2015,06,19,10,57,19.00
2015,06,19,10,58,19.20
2015,06,19,10,59,19.30
2015,06,19,11,00,19.50
2015,06,19,11,01,19.70
2015,06,19,11,02,19.70
2015,06,19,11,03,19.70
2015,06,19,11,04,19.70
2015,06,19,11,05,19.70
2015,06,19,11,06,19.70
2015,06,19,11,07,19.70
2015,06,19,11,08,19.60
2015,06,19,11,09,19.60
2015,06,19,11,10,19.50
2015,06,19,11,11,19.50
2015,06,19,11,12,19.50
2015,06,19,11,13,19.40
2015,06,19,11,14,19.40
2015,06,19,11,15,19.30
2015,06,19,11,16,19.40
2015,06,19,11,17,19.50
2015,06,19,11,18,19.70
2015,06,19,11,19,19.80
2015,06,19,11,20,19.90
2015,06,19,11,21,20.00
2015,06,19,11,22,20.10
2015,06,19,11,23,20.10
2015,06,19,11,24,20.20
2015,06,19,11,25,20.30
2015,06,19,11,26,20.30
2015,06,19,11,27,20.30
2015,06,19,11,28,20.30
2015,06,19,11,29,20.30
2015,06,19,11,30,20.40
2015,06,19,11,31,20.50
2015,06,19,11,32,20.70
2015,06,19,11,33,20.80
2015,06,19,11,34,21.00
2015,06,19,11,35,21.00
2015,06,19,11,36,20.90
2015,06,19,11,37,20.80
2015,06,19,11,38,20.80
2015,06,19,11,39,20.80
2015,06,19,11,40,20.80
2015,06,19,11,41,21.00
2015,06,19,11,42,21.20
2015,06,19,11,43,21.40
2015,06,19,11,44,21.60
2015,06,19,11,45,21.60
2015,06,19,11,46,21.50
2015,06,19,11,47,21.30
2015,06,19,11,48,21.20
2015,06,19,11,49,21.00
2015,06,19,11,50,20.80
2015,06,19,11,51,20.60
2015,06,19,11,52,20.40
2015,06,19,11,53,20.30
2015,06,19,11,54,20.20
2015,06,19,11,55,20.10
2015,06,19,11,56,20.00
2015,06,19,11,57,19.80
2015,06,19,11,58,19.80
2015,06,19,11,59,19.70
2015,06,19,12,00,19.70
2015,06,19,12,01,19.70
2015,06,19,12,02,19.70
2015,06,19,12,03,19.70
2015,06,19,12,04,19.70
2015,06,19,12,05,19.80
2015,06,19,12,06,20.00
2015,06,19,12,07,20.20
2015,06,19,12,08,20.40
2015,06,19,12,09,20.60
2015,06,19,12,10,20.60
2015,06,19,12,11,20.50
2015,06,19,12,12,20.50
2015,06,19,12,13,20.40
2015,06,19,12,14,20.40
2015,06,19,12,15,20.40
2015,06,19,12,16,20.40
2015,06,19,12,17,20.50
2015,06,19,12,18,20.60
2015,06,19,12,19,20.70
2015,06,19,12,20,20.70
2015,06,19,12,21,20.70
2015,06,19,12,22,20.60
2015,06,19,12,23,20.50
2015,06,19,12,24,20.40
2015,06,19,12,25,20.30
2015,06,19,12,26,20.30
2015,06,19,12,27,20.30
2015,06,19,12,28,20.20
2015,06,19,12,29,20.20
2015,06,19,12,30,20.20
2015,06,19,12,31,20.20
2015,06,19,12,32,20.00
2015,06,19,12,33,19.90
2015,06,19,12,34,19.90
2015,06,19,12,35,19.90
2015,06,19,12,36,19.90
2015,06,19,12,37,20.00
2015,06,19,12,38,20.00
2015,06,19,12,39,20.10
2015,06,19,12,40,20.10
2015,06,19,12,41,20.10
2015,06,19,12,42,20.20
2015,06,19,12,43,20.20
2015,06,19,12,44,20.10
2015,06,19,12,45,20.10
2015,06,19,12,46,20.10
2015,06,19,12,47,20.00
2015,06,19,12,48,19.90
2015,06,19,12,49,19.90
2015,06,19,12,50,19.80
2015,06,19,12,51,19.90
2015,06,19,12,52,19.90
2015,06,19,12,53,20.00
2015,06,19,12,54,20.10
2015,06,19,12,55,20.20
2015,06,19,12,56,20.20
2015,06,19,12,57,20.30
2015,06,19,12,58,20.30
2015,06,19,12,59,20.30
2015,06,19,13,00,20.20
2015,06,19,13,01,20.10
2015,06,19,13,02,20.10
2015,06,19,13,03,20.10
2015,06,19,13,04,20.10
2015,06,19,13,05,20.30
2015,06,19,13,06,20.40
2015,06,19,13,07,20.50
2015,06,19,13,08,20.50
2015,06,19,13,09,20.50
2015,06,19,13,10,20.50
2015,06,19,13,11,20.40
2015,06,19,13,12,20.30
2015,06,19,13,13,20.30
2015,06,19,13,14,20.20
2015,06,19,13,15,20.20
2015,06,19,13,16,20.10
2015,06,19,13,17,20.10
2015,06,19,13,18,20.10
2015,06,19,13,19,20.20
2015,06,19,13,20,20.30
2015,06,19,13,21,20.50
2015,06,19,13,22,20.50
2015,06,19,13,23,20.60
2015,06,19,13,24,20.60
2015,06,19,13,25,20.60
2015,06,19,13,26,20.70
2015,06,19,13,27,20.80
2015,06,19,13,28,20.90
2015,06,19,13,29,20.90
2015,06,19,13,30,20.90
2015,06,19,13,31,20.80
2015,06,19,13,32,20.70
2015,06,19,13,33,20.70
2015,06,19,13,34,20.80
2015,06,19,13,35,20.90
2015,06,19,13,36,21.00
2015,06,19,13,37,21.10
2015,06,19,13,38,21.10
2015,06,19,13,39,21.10
2015,06,19,13,40,21.00
2015,06,19,13,41,20.80
2015,06,19,13,42,20.70
2015,06,19,13,43,20.60
2015,06,19,13,44,20.60
2015,06,19,13,45,20.60
2015,06,19,13,46,20.70
2015,06,19,13,47,20.80
2015,06,19,13,48,20.80
2015,06,19,13,49,20.80
2015,06,19,13,50,20.90
2015,06,19,13,51,21.00
2015,06,19,13,52,21.10
2015,06,19,13,53,21.30
2015,06,19,13,54,21.40
2015,06,19,13,55,21.50
2015,06,19,13,56,21.50
2015,06,19,13,57,21.50
2015,06,19,13,58,21.40
2015,06,19,13,59,21.40
2015,06,19,14,00,21.30
2015,06,19,14,01,21.30
2015,06,19,14,02,21.30
2015,06,19,14,03,21.30
2015,06,19,14,04,21.40
2015,06,19,14,05,21.40
2015,06,19,14,06,21.50
2015,06,19,14,07,21.50
2015,06,19,14,08,21.50
2015,06,19,14,09,21.60
2015,06,19,14,10,21.60
2015,06,19,14,11,21.70
2015,06,19,14,12,21.80
2015,06,19,14,13,21.80
2015,06,19,14,14,21.90
2015,06,19,14,15,22.00
2015,06,19,14,16,22.00
2015,06,19,14,17,21.90
2015,06,19,14,18,21.80
2015,06,19,14,19,21.70
2015,06,19,14,20,21.70
2015,06,19,14,21,21.80
2015,06,19,14,22,21.80
2015,06,19,14,23,21.70
2015,06,19,14,24,21.80
2015,06,19,14,25,21.80
2015,06,19,14,26,21.80
2015,06,19,14,27,21.80
2015,06,19,14,28,21.70
2015,06,19,14,29,21.60
2015,06,19,14,30,21.50
2015,06,19,14,31,21.30
2015,06,19,14,32,21.30
2015,06,19,14,33,21.20
2015,06,19,14,34,21.10
2015,06,19,14,35,21.10
2015,06,19,14,36,21.20
2015,06,19,14,37,21.30
2015,06,19,14,38,21.50
2015,06,19,14,39,21.60
2015,06,19,14,40,21.70
2015,06,19,14,41,21.80
2015,06,19,14,42,21.80
2015,06,19,14,43,21.70
2015,06,19,14,44,21.70
2015,06,19,14,45,21.70
2015,06,19,14,46,21.70
2015,06,19,14,47,21.60
2015,06,19,14,48,21.60
2015,06,19,14,49,21.40
2015,06,19,14,50,21.40
2015,06,19,14,51,21.30
2015,06,19,14,52,21.30
2015,06,19,14,53,21.30
2015,06,19,14,54,21.30
2015,06,19,14,55,21.50
2015,06,19,14,56,21.70
2015,06,19,14,57,21.90
2015,06,19,14,58,22.10
2015,06,19,14,59,22.30
2015,06,19,15,00,22.40
2015,06,19,15,01,22.50
2015,06,19,15,02,22.60
2015,06,19,15,03,22.50
2015,06,19,15,04,22.50
2015,06,19,15,05,22.40
2015,06,19,15,06,22.30
2015,06,19,15,07,22.20
2015,06,19,15,08,22.00
2015,06,19,15,09,22.00
2015,06,19,15,10,22.00
2015,06,19,15,11,22.10
2015,06,19,15,12,22.20
2015,06,19,15,13,22.20
2015,06,19,15,14,22.30
2015,06,19,15,15,22.40
2015,06,19,15,16,22.40
2015,06,19,15,17,22.50
2015,06,19,15,18,22.30
2015,06,19,15,19,22.20
2015,06,19,15,20,22.10
2015,06,19,15,21,22.00
2015,06,19,15,22,22.00
2015,06,19,15,23,22.00
2015,06,19,15,24,22.10
2015,06,19,15,25,22.20
2015,06,19,15,26,22.30
2015,06,19,15,27,22.40
2015,06,19,15,28,22.40
2015,06,19,15,29,22.50
2015,06,19,15,30,22.60
2015,06,19,15,31,22.70
2015,06,19,15,32,22.60
2015,06,19,15,33,22.50
2015,06,19,15,34,22.50
2015,06,19,15,35,22.40
2015,06,19,15,36,22.40
2015,06,19,15,37,22.30
2015,06,19,15,38,22.20
2015,06,19,15,39,22.20
2015,06,19,15,40,22.20
2015,06,19,15,41,22.10
2015,06,19,15,42,22.10
2015,06,19,15,43,22.20
2015,06,19,15,44,22.20
2015,06,19,15,45,22.30
2015,06,19,15,46,22.40
2015,06,19,15,47,22.40
2015,06,19,15,48,22.30
2015,06,19,15,49,22.20
2015,06,19,15,50,22.10
2015,06,19,15,51,22.00
2015,06,19,15,52,22.00
2015,06,19,15,53,22.00
2015,06,19,15,54,22.00
2015,06,19,15,55,22.10
2015,06,19,15,56,22.10
2015,06,19,15,57,22.00
2015,06,19,15,58,21.90
2015,06,19,15,59,21.90
2015,06,19,16,00,21.80
2015,06,19,16,01,21.80
2015,06,19,16,02,21.80
2015,06,19,16,03,21.80
2015,06,19,16,04,21.90
2015,06,19,16,05,22.00
2015,06,19,16,06,22.10
2015,06,19,16,07,22.20
2015,06,19,16,08,22.30
2015,06,19,16,09,22.30
2015,06,19,16,10,22.30
2015,06,19,16,11,22.30
2015,06,19,16,12,22.20
2015,06,19,16,13,22.10
2015,06,19,16,14,22.10
2015,06,19,16,15,22.00
2015,06,19,16,16,22.00
2015,06,19,16,17,22.00
2015,06,19,16,18,22.10
2015,06,19,16,19,22.10
2015,06,19,16,20,22.00
2015,06,19,16,21,21.80
2015,06,19,16,22,21.70
2015,06,19,16,23,21.70
2015,06,19,16,24,21.80
2015,06,19,16,25,21.80
2015,06,19,16,26,21.90
2015,06,19,16,27,22.00
2015,06,19,16,28,22.00
2015,06,19,16,29,22.10
2015,06,19,16,30,22.00
2015,06,19,16,31,22.00
2015,06,19,16,32,22.10
2015,06,19,16,33,22.10
2015,06,19,16,34,22.20
2015,06,19,16,35,22.20
2015,06,19,16,36,22.30
2015,06,19,16,37,22.30
2015,06,19,16,38,22.40
2015,06,19,16,39,22.40
2015,06,19,16,40,22.30
2015,06,19,16,41,22.30
2015,06,19,16,42,22.30
2015,06,19,16,43,22.30
2015,06,19,16,44,22.30
2015,06,19,16,45,22.30
2015,06,19,16,46,22.30
2015,06,19,16,47,22.30
2015,06,19,16,48,22.30
2015,06,19,16,49,22.30
2015,06,19,16,50,22.20
2015,06,19,16,51,22.10
2015,06,19,16,52,22.00
2015,06,19,16,53,21.90
2015,06,19,16,54,21.90
2015,06,19,16,55,22.00
2015,06,19,16,56,22.00
2015,06,19,16,57,22.20
2015,06,19,16,58,22.20
2015,06,19,16,59,22.30
2015,06,19,17,00,22.20
2015,06,19,17,01,22.20
2015,06,19,17,02,22.20
2015,06,19,17,03,22.20
2015,06,19,17,04,22.20
2015,06,19,17,05,22.10
2015,06,19,17,06,22.10
2015,06,19,17,07,22.10
2015,06,19,17,08,22.10
2015,06,19,17,09,22.10
2015,06,19,17,10,22.20
2015,06,19,17,11,22.10
2015,06,19,17,12,22.10
2015,06,19,17,13,22.10
2015,06,19,17,14,22.00
2015,06,19,17,15,21.90
2015,06,19,17,16,21.80
2015,06,19,17,17,21.70
2015,06,19,17,18,21.70
2015,06,19,17,19,21.60
2015,06,19,17,20,21.60
2015,06,19,17,21,21.50
2015,06,19,17,22,21.40
2015,06,19,17,23,21.40
2015,06,19,17,24,21.30
2015,06,19,17,25,21.30
2015,06,19,17,26,21.30
2015,06,19,17,27,21.30
2015,06,19,17,28,21.30
2015,06,19,17,29,21.30
2015,06,19,17,30,21.30
2015,06,19,17,31,21.20
2015,06,19,17,32,21.20
2015,06,19,17,33,21.10
2015,06,19,17,34,21.10
2015,06,19,17,35,21.10
2015,06,19,17,36,21.10
2015,06,19,17,37,21.10
2015,06,19,17,38,21.20
2015,06,19,17,39,21.20
2015,06,19,17,40,21.20
2015,06,19,17,41,21.10
2015,06,19,17,42,21.00
2015,06,19,17,43,21.00
2015,06,19,17,44,20.90
2015,06,19,17,45,20.90
2015,06,19,17,46,20.80
2015,06,19,17,47,20.80
2015,06,19,17,48,20.70
2015,06,19,17,49,20.70
2015,06,19,17,50,20.60
2015,06,19,17,51,20.60
2015,06,19,17,52,20.50
2015,06,19,17,53,20.50
2015,06,19,17,54,20.50
2015,06,19,17,55,20.40
2015,06,19,17,56,20.50
2015,06,19,17,57,20.50
2015,06,19,17,58,20.50
2015,06,19,17,59,20.60
2015,06,19,18,00,20.60
2015,06,19,18,01,20.60
2015,06,19,18,02,20.60
2015,06,19,18,03,20.70
2015,06,19,18,04,20.70
2015,06,19,18,05,20.70
2015,06,19,18,06,20.70
2015,06,19,18,07,20.70
2015,06,19,18,08,20.80
2015,06,19,18,09,20.80
2015,06,19,18,10,20.80
2015,06,19,18,11,20.90
2015,06,19,18,12,21.00
2015,06,19,18,13,21.00
2015,06,19,18,14,21.00
2015,06,19,18,15,21.10
2015,06,19,18,16,21.10
2015,06,19,18,17,21.10
2015,06,19,18,18,21.10
2015,06,19,18,19,21.20
2015,06,19,18,20,21.20
2015,06,19,18,21,21.20
2015,06,19,18,22,21.30
2015,06,19,18,23,21.40
2015,06,19,18,24,21.50
2015,06,19,18,25,21.50
2015,06,19,18,26,21.60
2015,06,19,18,27,21.70
2015,06,19,18,28,21.70
2015,06,19,18,29,21.70
2015,06,19,18,30,21.80
2015,06,19,18,31,21.80
2015,06,19,18,32,21.80
2015,06,19,18,33,21.80
2015,06,19,18,34,21.80
2015,06,19,18,35,21.70
2015,06,19,18,36,21.70
2015,06,19,18,37,21.70
2015,06,19,18,38,21.70
2015,06,19,18,39,21.70
2015,06,19,18,40,21.70
2015,06,19,18,41,21.70
2015,06,19,18,42,21.70
2015,06,19,18,43,21.70
2015,06,19,18,44,21.60
2015,06,19,18,45,21.40
2015,06,19,18,46,21.30
2015,06,19,18,47,21.30
2015,06,19,18,48,21.20
2015,06,19,18,49,21.20
2015,06,19,18,50,21.20
2015,06,19,18,51,21.10
2015,06,19,18,52,21.10
2015,06,19,18,53,21.00
2015,06,19,18,54,20.90
2015,06,19,18,55,20.90
2015,06,19,18,56,20.80
2015,06,19,18,57,20.80
2015,06,19,18,58,20.70
2015,06,19,18,59,20.70
2015,06,19,19,00,20.60
2015,06,19,19,01,20.60
2015,06,19,19,02,20.50
2015,06,19,19,03,20.40
2015,06,19,19,04,20.30
2015,06,19,19,05,20.10
2015,06,19,19,06,20.00
2015,06,19,19,07,19.80
2015,06,19,19,08,19.60
2015,06,19,19,09,19.50
2015,06,19,19,10,19.40
2015,06,19,19,11,19.30
2015,06,19,19,12,19.20
2015,06,19,19,13,19.10
2015,06,19,19,14,19.10
2015,06,19,19,15,19.00
2015,06,19,19,16,19.00
2015,06,19,19,17,18.90
2015,06,19,19,18,18.80
2015,06,19,19,19,18.80
2015,06,19,19,20,18.80
2015,06,19,19,21,18.70
2015,06,19,19,22,18.70
2015,06,19,19,23,18.70
2015,06,19,19,24,18.70
2015,06,19,19,25,18.70
2015,06,19,19,26,18.70
2015,06,19,19,27,18.70
2015,06,19,19,28,18.70
2015,06,19,19,29,18.70
2015,06,19,19,30,18.70
2015,06,19,19,31,18.70
2015,06,19,19,32,18.70
2015,06,19,19,33,18.70
2015,06,19,19,34,18.70
2015,06,19,19,35,18.70
2015,06,19,19,36,18.70
2015,06,19,19,37,18.70
2015,06,19,19,38,18.70
2015,06,19,19,39,18.70
2015,06,19,19,40,18.70
2015,06,19,19,41,18.70
2015,06,19,19,42,18.70
2015,06,19,19,43,18.70
2015,06,19,19,44,18.80
2015,06,19,19,45,18.80
2015,06,19,19,46,18.90
2015,06,19,19,47,19.00
2015,06,19,19,48,19.00
2015,06,19,19,49,19.10
2015,06,19,19,50,19.10
2015,06,19,19,51,19.20
2015,06,19,19,52,19.20
2015,06,19,19,53,19.20
2015,06,19,19,54,19.20
2015,06,19,19,55,19.20
2015,06,19,19,56,19.20
2015,06,19,19,57,19.20
2015,06,19,19,58,19.10
2015,06,19,19,59,19.10
2015,06,19,20,00,19.10
2015,06,19,20,01,19.00
2015,06,19,20,02,19.00
2015,06,19,20,03,18.90
2015,06,19,20,04,18.90
2015,06,19,20,05,18.80
2015,06,19,20,06,18.80
2015,06,19,20,07,18.80
2015,06,19,20,08,18.70
2015,06,19,20,09,18.70
2015,06,19,20,10,18.70
2015,06,19,20,11,18.70
2015,06,19,20,12,18.70
2015,06,19,20,13,18.60
2015,06,19,20,14,18.60
2015,06,19,20,15,18.60
2015,06,19,20,16,18.70
2015,06,19,20,17,18.70
2015,06,19,20,18,18.70
2015,06,19,20,19,18.70
2015,06,19,20,20,18.60
2015,06,19,20,21,18.60
2015,06,19,20,22,18.60
2015,06,19,20,23,18.60
2015,06,19,20,24,18.50
2015,06,19,20,25,18.40
2015,06,19,20,26,18.40
2015,06,19,20,27,18.40